Rolla, MO

1:57 AM CST on February 21, 2018 (GMT -0600)
Rolla National

Weather History for KVIH - May, 2013

Change the Weather History Date:

Sunday, May 26, 2013

  Actual Average Record
Temperature  
Mean Temperature 73 °F 66 °F  
Max Temperature 84 °F 77 °F 98 °F (2012)
Min Temperature 61 °F 56 °F 37 °F (1901)
Degree Days  
Heating Degree Days 0 2  
Month to date heating degree days 150 107  
Since 1 July heating degree days 4940 4825  
Cooling Degree Days 8 4  
Month to date cooling degree days 57 59  
Year to date cooling degree days 70 85  
Growing Degree Days 22 (Base 50)    
Moisture  
Dew Point 61 °F    
Average Humidity 66    
Maximum Humidity 78    
Minimum Humidity 54    
Precipitation  
Precipitation 0.00 in 0.16 in 2.23 in (1950)
Month to date precipitation 3.38 4.21  
Year to date precipitation 17.55 15.98  
Sea Level Pressure  
Sea Level Pressure 30.05 in    
Wind  
Wind Speed 10 mph (South)    
Max Wind Speed 17 mph    
Max Gust Speed 23 mph    
Visibility 10 miles    
Events      
T = Trace of Precipitation, MM = Missing Value Source: NWS Daily Summary

Daily Weather History Graph

Daily Weather History Graph

Search for Another Location

Airport or City:

Trip Planner

Search our weather history database for the weather conditions in past years. The results will help you decide how hot, cold, wet, or windy it might be!

Date:

Astronomy

May. 26, 2013 Rise Set
Actual Time 5:48 AM CDT 8:20 PM CDT
Civil Twilight 5:17 AM CDT 8:50 PM CDT
Nautical Twilight 4:40 AM CDT 9:28 PM CDT
Astronomical Twilight 3:58 AM CDT 10:11 PM CDT
Moon 10:08 PM CDT (5/26) 7:17 AM CDT (5/26)
Length of Visible Light 15h 32m
Length of Day
14h 31m
Waning Gibbous, 96% of the Moon is Illuminated
May 26
Waning Gibbous
May 31
Last Quarter
Jun 8
New
Jun 16
First Quarter
Jun 23
Full

Hourly Weather History & Observations

Time (CDT) Temp. Heat Index Dew Point Humidity Pressure Visibility Wind Dir Wind Speed Gust Speed Precip Events Conditions
12:53 AM 62.1 °F - 55.0 °F 78% 30.13 in 10.0 mi SSE 10.4 mph - N/A   Clear
1:53 AM 64.9 °F - 54.0 °F 68% 30.11 in 10.0 mi South 13.8 mph - N/A   Overcast
2:53 AM 64.0 °F - 54.0 °F 70% 30.10 in 10.0 mi South 15.0 mph - N/A   Partly Cloudy
3:53 AM 64.0 °F - 55.0 °F 73% 30.09 in 10.0 mi South 12.7 mph - N/A   Mostly Cloudy
4:53 AM 64.0 °F - 55.0 °F 73% 30.10 in 10.0 mi South 11.5 mph - N/A   Partly Cloudy
5:53 AM 62.1 °F - 55.0 °F 78% 30.09 in 10.0 mi South 9.2 mph - N/A   Clear
6:53 AM 64.0 °F - 55.9 °F 75% 30.09 in 10.0 mi South 9.2 mph - N/A   Clear
7:53 AM 66.9 °F - 57.9 °F 73% 30.10 in 10.0 mi South 10.4 mph - N/A   Scattered Clouds
8:53 AM 70.0 °F - 61.0 °F 73% 30.11 in 10.0 mi South 10.4 mph - N/A   Scattered Clouds
9:53 AM 73.0 °F - 63.0 °F 71% 30.11 in 10.0 mi SSW 10.4 mph - N/A   Clear
10:53 AM 75.9 °F - 64.9 °F 69% 30.10 in 10.0 mi SSW 8.1 mph - N/A   Scattered Clouds
11:53 AM 78.1 °F - 66.9 °F 68% 30.10 in 10.0 mi SSW 9.2 mph - N/A   Clear
12:53 PM 79.0 °F - 66.9 °F 66% 30.08 in 10.0 mi SSW 9.2 mph - N/A   Scattered Clouds
1:53 PM 81.0 °F 83.3 °F 66.9 °F 62% 30.05 in 10.0 mi SSW 10.4 mph - N/A   Mostly Cloudy
2:53 PM 82.0 °F 83.8 °F 64.9 °F 56% 30.03 in 10.0 mi South 11.5 mph 19.6 mph N/A   Scattered Clouds
3:53 PM 81.0 °F 82.2 °F 63.0 °F 54% 30.01 in 10.0 mi South 13.8 mph 23.0 mph N/A   Partly Cloudy
4:53 PM 82.0 °F 83.4 °F 64.0 °F 54% 29.99 in 10.0 mi South 11.5 mph - N/A   Scattered Clouds
5:53 PM 80.1 °F 81.7 °F 64.0 °F 58% 29.98 in 10.0 mi South 9.2 mph - N/A   Clear
6:53 PM 79.0 °F - 63.0 °F 58% 29.97 in 10.0 mi South 11.5 mph 19.6 mph N/A   Partly Cloudy
7:53 PM 75.9 °F - 63.0 °F 64% 29.97 in 10.0 mi South 8.1 mph - N/A   Clear
8:53 PM 75.0 °F - 64.0 °F 69% 29.99 in 10.0 mi SSE 8.1 mph - N/A   Clear
9:53 PM 73.9 °F - 64.0 °F 71% 29.98 in 10.0 mi South 11.5 mph - N/A   Clear
10:53 PM 72.0 °F - 63.0 °F 73% 29.99 in 10.0 mi South 8.1 mph - N/A   Clear
11:53 PM 73.0 °F - 64.0 °F 73% 29.98 in 10.0 mi South 9.2 mph - N/A   Clear